Location: Siratepeler Tepesi
(39.1042°N, 32.0781°E)
Time: 23:47:18
(UTC+00:00)

CZ-4B DEB - Pass Details

Date: 11 April 2026
Orbit: 834 x 853 km, 98.9° (Epoch: 11 May)

Event Time Altitude Azimuth Distance (km) Brightness Sun altitude
Exits shadow 17:52:43 18° 158° (SSE) 1,965 5.7 -16.9°
Maximum altitude 17:56:53 77° 74° (ENE) 865 4.1 -17.6°
Drops below altitude 10° 18:02:22 10° 349° (N) 2,472 7.1 -18.5°
Sets 18:04:45 0° 349° (NNW) 3,414 8.0 -18.9°
